Regional Weather Roundup
Issued by NWS

Current Version | Previous Version | Text Only | Print | Product List | Glossary Off
Versions: 1 2 3 4 5 6 7 8 9 10 11 12 13 14 15 16 17 18 19 20 21 22 23 24 25 26 27 28 29 30 31 32 33 34 35 36 37 38 39 40 41 42 43 44 45 46 47 48 49 50

000
ASUS44 KBMX 161110
RWRAL

ALABAMA REGIONAL WEATHER ROUNDUP
NATIONAL WEATHER SERVICE BIRMINGHAM AL
600 AM CDT TUE SEP 16 2014

NOTE: "FAIR" INDICATES FEW OR NO CLOUDS BELOW 12,000 FEET
WITH NO SIGNIFICANT WEATHER AND/OR OBSTRUCTIONS TO VISIBILITY.

THE REMARK "TC" DENOTES TEMPERATURE IN DEGREES CELSIUS.

ALZ001>011-014-016>018-020-161200-
NORTH ALABAMA

CITY           SKY/WX    TMP DP  RH WIND       PRES   REMARKS
MUSCLE SHOALS  PTCLDY    67  65  93 CALM      30.12R FOG
HUNTSVILLE     MOCLDY    69  66  90 N3        30.11R
DECATUR        PTCLDY    67  65  93 N3        30.12R
HALEYVILLE     FAIR      69  69 100 CALM      30.15R
GADSDEN        CLOUDY    72  70  94 CALM      30.10S VSB 1/2
$$

ALZ012-013-022-023-030>036-040>044-161200-
WEST CENTRAL ALABAMA

CITY           SKY/WX    TMP DP  RH WIND       PRES   REMARKS
TUSCALOOSA     MOCLDY    73  71  93 CALM      30.08S
$$

ALZ015-024>027-033>036-040>044-161200-
CENTRAL ALABAMA

CITY           SKY/WX    TMP DP  RH WIND       PRES   REMARKS
BIRMINGHAM     CLOUDY    72  69  90 CALM      30.12R
MONTGOMERY     CLOUDY    74  71  91 N5        30.07R
SHELBY CO ARPT MOCLDY    71  70  96 CALM      30.10S
MAXWELL AFB    CLOUDY    72  72 100 NE2       30.07S
GREENVILLE     FOG       74  72  93 N5        30.07R VSB 3/4
$$

ALZ019-021-028-029-037-038-045>048-161200-
EAST CENTRAL ALABAMA

CITY           SKY/WX    TMP DP  RH WIND       PRES   REMARKS
ANNISTON       FOG       71  71 100 CALM      30.10S VSB 1
ALEXANDER CITY MOCLDY    71  70  96 CALM      30.09F FOG
AUBURN         MOCLDY    70  66  88 N6        30.11S
$$

ALZ051>064-161200-
SOUTHWEST ALABAMA

CITY           SKY/WX    TMP DP  RH WIND       PRES   REMARKS
MOBILE         MOCLDY    73  73 100 N3        30.07R FOG
BROOKLEY FIELD CLEAR     75  75 100 NW5       30.07R
EVERGREEN      MOCLDY    74  72  93 NW3       30.07R
$$

ALZ049-050-065>069-161200-
SOUTHEAST ALABAMA

CITY           SKY/WX    TMP DP  RH WIND       PRES   REMARKS
DOTHAN         PTCLDY    73  73 100 CALM      30.10S FOG
OZARK          FOG       73  73 100 N5        30.06S VSB 1/4
TROY           CLOUDY    73  72  96 CALM      30.08R FOG
EUFAULA        CLOUDY    76  73  91 CALM      30.06S
$$



USA.gov is the U.S. government's official web portal to all federal, state and local government web resources and services.